Home > Weather > Garbsen > Past weeks

Flag for Germany Past Weather in Garbsen, Lower Saxony, Germany — Yesterday and Last 2 Weeks

Now
63 °F

Partly sunny.


Feels Like: 63 °F
Forecast: 62 / 72 °F
Wind: 7 mph from Southwest

Location: Hannover

Current Time: Jul 29, 2016 at 7:57:55 AM

Latest Report: Jul 29, 2016 at 7:20 AM


Visibility: N/A

Pressure: 29.89 "Hg

Humidity: 88%

Dew Point: 59 °F

Location of GarbsenLocation

Past Weather in Garbsen — Graph

°F

Garbsen Temperature Yesterday

Maximum temperature yesterday: 70 °F (at 3:20 PM)
Minimum temperature yesterday: 64 °F (at 12:20 AM)
Average temperature yesterday: 67 °F

High & Low Weather Summary for the Past Weeks

 TemperatureHumidityPressure
High88 °F (Jul 20, 3:20 PM)100% (Jul 14, 6:20 AM)30.24 "Hg (Jul 14, 6:20 AM)
Low52 °F (Jul 16, 2:20 AM)31% (Jul 20, 5:50 PM)29.86 "Hg (Jul 21, 4:20 AM)
Average68 °F75%30.06 "Hg
* Reported Jul 14 6:20 AM — Jul 29 6:20 AM, Garbsen, Weather by CustomWeather, © 2016

Note: Actual official high and low records may vary slightly from our data, if they occured in-between our weather recording intervals... More about our weather records

Advertising

Garbsen Weather History for the Previous 24 Hours

Scroll right to see more
 ConditionsComfort  
Time TempWeatherWind HumidityBarometerVisibility
6:20 AM
Fri, Jul 29
63 °FLight rain. Partly cloudy.6 mph88%29.89 "HgN/A
5:50 AM63 °FLight rain. Partly cloudy.7 mph94%29.89 "HgN/A
5:20 AM63 °FPassing clouds.6 mph94%29.89 "HgN/A
4:50 AM64 °FLight rain. Passing clouds.7 mph83%29.89 "HgN/A
4:20 AM64 °FPassing clouds.6 mph83%29.89 "HgN/A
3:50 AM64 °FClear.7 mph88%29.89 "Hg10 mi
3:20 AM64 °FPassing clouds.8 mph88%29.89 "HgN/A
2:50 AM64 °FPassing clouds.7 mph88%29.89 "HgN/A
2:20 AM64 °FPassing clouds.6 mph88%29.89 "HgN/A
1:50 AM64 °FPassing clouds.5 mph88%29.89 "HgN/A
1:20 AM64 °FPassing clouds.3 mph88%29.89 "HgN/A
12:50 AM64 °FClear.6 mph88%29.89 "Hg10 mi
12:20 AM64 °FClear.7 mph88%29.89 "Hg10 mi
11:50 PM
Thu, Jul 28
64 °FPassing clouds.6 mph88%29.89 "HgN/A
11:20 PM64 °FPassing clouds.3 mph88%29.89 "HgN/A
10:50 PM64 °FClear.5 mph88%29.89 "Hg10 mi
10:20 PM66 °FScattered showers. Passing clouds.6 mph83%29.89 "HgN/A
9:50 PM66 °FScattered showers. Broken clouds.6 mph83%29.92 "HgN/A
9:20 PM66 °FScattered showers. Partly sunny.5 mph83%29.92 "HgN/A
8:50 PM66 °FSprinkles. Partly sunny.6 mph83%29.92 "HgN/A
8:20 PM68 °FScattered showers. Broken clouds.7 mph83%29.92 "HgN/A
7:50 PM70 °FBroken clouds.7 mph78%29.89 "HgN/A
7:20 PM70 °FScattered clouds.1 mph78%29.92 "HgN/A
6:50 PM70 °FPartly sunny.1 mph78%29.92 "HgN/A
6:20 PM70 °FThundershowers. Broken clouds.1 mph78%29.92 "HgN/A
5:50 PM68 °FThunderstorms. Broken clouds.10 mph83%29.92 "HgN/A
5:20 PM70 °FThundershowers. Broken clouds.6 mph83%29.92 "HgN/A
4:50 PM70 °FScattered showers. Partly sunny.5 mph83%29.95 "HgN/A
4:20 PM68 °FScattered showers. Partly sunny.5 mph88%29.95 "Hg5 mi
3:50 PM68 °FSprinkles. Broken clouds.5 mph88%29.95 "Hg6 mi
3:20 PM70 °FSprinkles. Broken clouds.6 mph88%29.98 "Hg6 mi
2:50 PM66 °FLots of rain. Broken clouds.5 mph88%29.98 "Hg4 mi
2:20 PM66 °FRain showers. Broken clouds.6 mph88%29.98 "Hg4 mi
1:50 PM68 °FRain. Broken clouds.5 mph78%29.98 "Hg4 mi
1:20 PM68 °FBroken clouds.5 mph78%29.98 "HgN/A
12:50 PM68 °FMore clouds than sun.6 mph78%30.01 "HgN/A
12:20 PM68 °FLight rain. Broken clouds.6 mph78%30.01 "HgN/A
11:50 AM68 °FBroken clouds.6 mph73%30.01 "HgN/A
11:20 AM68 °FPartly sunny.2 mph73%30.01 "HgN/A
10:50 AM68 °FPartly sunny.7 mph73%30.01 "HgN/A
10:20 AM68 °FBroken clouds.3 mph78%30.01 "HgN/A
9:50 AM68 °FBroken clouds.2 mph73%30.01 "HgN/A
9:20 AM68 °FPartly sunny.5 mph78%30.01 "HgN/A
8:50 AM66 °FBroken clouds.6 mph83%30.01 "HgN/A
8:20 AM64 °FBroken clouds.8 mph88%30.01 "HgN/A
7:50 AM64 °FPartly sunny.8 mph88%29.98 "HgN/A
7:20 AM64 °FPartly sunny.8 mph88%29.98 "HgN/A
Weather by CustomWeather, © 2016

See weather overviewHow to use our weather pages